Weather History for Klamath Falls, OR

Change the Weather History Date:

Monday, July 1, 2013

  Actual Average Record
Temperature  
Mean Temperature 77 °F 63 °F  
Max Temperature 96 °F 80 °F 97 °F (2014)
Min Temperature 57 °F 46 °F 30 °F (1976)
Degree Days  
Heating Degree Days 0 3  
Month to date heating degree days 0 3  
Since 1 June heating degree days 178 220  
Since 1 July heating degree days 0 3  
Cooling Degree Days 12 1  
Month to date cooling degree days 12 1  
Year to date cooling degree days 58 13  
Since 1 June cooling degree days 58 12  
Growing Degree Days 26 (Base 50)    
Moisture  
Dew Point 54 °F    
Average Humidity 52    
Maximum Humidity 93    
Minimum Humidity 13    
Precipitation  
Precipitation 0.00 in 0.03 in 0.42 in (1958)
Month to date precipitation 0.00 0.03  
Year to date precipitation 4.55 8.86  
Sea Level Pressure  
Sea Level Pressure 29.93 in    
Wind  
Wind Speed 5 mph (NW)    
Max Wind Speed 18 mph    
Max Gust Speed 22 mph    
Visibility 10 miles    
Events      
T = Trace of Precipitation, MM = Missing Value Source: NWS Daily Summary

Daily Weather History Graph

Daily Weather History Graph

Search for Another Location

Airport:

Trip Planner

Search our weather history database for the weather conditions in past years. The results will help you decide how hot, cold, wet, or windy it might be!

Date:

Astronomy

Jul. 01, 2013 Rise Set
Actual Time 5:34 AM PDT 8:46 PM PDT
Civil Twilight 5:00 AM PDT 9:21 PM PDT
Nautical Twilight 4:16 AM PDT 10:05 PM PDT
Astronomical Twilight 3:22 AM PDT 10:58 PM PDT
Moon 1:11 AM PDT (7/1) 3:03 PM PDT (7/1)
Length of Visible Light 16h 20m
Length of Day
15h 11m
Waning Crescent, 34% of the Moon is Illuminated
Jul 1
Waning Crescent
Jul 8
New
Jul 15
First Quarter
Jul 22
Full
Jul 29
Last Quarter

Hourly Weather History & Observations

Time (PDT) Temp. Heat Index Dew Point Humidity Pressure Visibility Wind Dir Wind Speed Gust Speed Precip Events Conditions
12:53 AM 69.1 °F - 55.9 °F 63% 29.88 in 10.0 mi Calm Calm - N/A   Clear
1:53 AM 64.0 °F - 55.9 °F 75% 29.88 in 10.0 mi Calm Calm - N/A   Clear
2:53 AM 60.1 °F - 55.9 °F 86% 29.88 in 10.0 mi Calm Calm - N/A   Clear
3:53 AM 60.1 °F - 55.9 °F 86% 29.88 in 10.0 mi Calm Calm - N/A   Clear
4:53 AM 57.0 °F - 54.0 °F 89% 29.90 in 10.0 mi Calm Calm - N/A   Clear
5:53 AM 57.9 °F - 55.0 °F 90% 29.91 in 10.0 mi Calm Calm - N/A   Clear
6:53 AM 63.0 °F - 57.9 °F 84% 29.92 in 10.0 mi Calm Calm - N/A   Clear
7:53 AM 68.0 °F - 57.9 °F 70% 29.94 in 10.0 mi Calm Calm - N/A   Clear
8:53 AM 72.0 °F - 60.1 °F 66% 29.94 in 10.0 mi Calm Calm - N/A   Clear
9:53 AM 77.0 °F - 60.1 °F 56% 29.94 in 10.0 mi SE 4.6 mph - N/A   Clear
10:53 AM 81.0 °F 81.7 °F 61.0 °F 50% 29.94 in 10.0 mi Variable 5.8 mph - N/A   Clear
11:53 AM 84.9 °F 83.7 °F 55.9 °F 37% 29.94 in 10.0 mi Variable 3.5 mph - N/A   Clear
12:53 PM 88.0 °F 85.9 °F 54.0 °F 31% 29.94 in 10.0 mi SW 5.8 mph - N/A   Clear
1:53 PM 90.0 °F 87.5 °F 53.1 °F 28% 29.94 in 10.0 mi Variable 3.5 mph - N/A   Clear
2:53 PM 93.0 °F 90.6 °F 53.1 °F 26% 29.93 in 10.0 mi Variable 4.6 mph - N/A   Clear
3:53 PM 93.0 °F - 48.0 °F 21% 29.93 in 10.0 mi Variable 4.6 mph - N/A   Clear
4:53 PM 96.1 °F - 37.9 °F 13% 29.93 in 10.0 mi NNW 11.5 mph - N/A   Clear
5:53 PM 93.9 °F - 46.9 °F 20% 29.93 in 10.0 mi NNW 16.1 mph 21.9 mph N/A   Clear
6:53 PM 91.0 °F - 51.1 °F 25% 29.92 in 10.0 mi NNW 15.0 mph - N/A   Clear
7:53 PM 87.1 °F 84.9 °F 53.1 °F 31% 29.94 in 10.0 mi NNW 15.0 mph - N/A   Clear
8:53 PM 81.0 °F 80.5 °F 54.0 °F 39% 29.96 in 10.0 mi NW 8.1 mph - N/A   Clear
9:53 PM 75.9 °F - 55.0 °F 48% 29.98 in 10.0 mi WNW 4.6 mph - N/A   Clear
10:53 PM 73.9 °F - 55.9 °F 53% 30.00 in 10.0 mi WNW 8.1 mph - N/A   Clear
11:53 PM 70.0 °F - 55.9 °F 61% 30.01 in 10.0 mi Calm Calm - N/A   Clear